Regional Weather Roundup
Issued by NWS Albany, NY

Home | Current Version | Previous Version | Text Only | Print | Product List | Glossary On
Versions: 1 2 3 4 5 6 7 8 9 10 11 12 13 14 15 16 17 18 19 20 21 22 23 24 25 26 27 28 29 30 31 32 33 34 35 36 37 38 39 40 41 42 43 44 45 46 47 48 49 50
000
ASUS41 KALY 310410
RWRALY

NEW YORK STATE HOURLY WEATHER ROUNDUP
NATIONAL WEATHER SERVICE ALBANY NY
1200 AM EDT WED AUG 31 2016

NOTE: "FAIR" INDICATES FEW OR NO CLOUDS BELOW 12,000 FEET WITH NO
SIGNIFICANT WEATHER AND/OR NO OBSTRUCTIONS TO VISIBILITY.

NYZ032-033-038>043-046>054-057>066-NYZ062>081-082-084-310500-
EAST


CITY           SKY/WX    TMP DP  RH WIND       PRES   REMARKS
ALBANY         PTCLDY    66  59  78 S3        30.03F
GLENS FALLS    PTCLDY    62  59  90 CALM      30.01F
POUGHKEEPSIE   CLOUDY    65  61  87 CALM      30.03S
NEWBURGH       CLEAR     66  63  88 CALM      30.07S
MONTGOMERY     CLOUDY    63  61  93 SW3       30.05F
WHITE PLAINS   CLOUDY    69  66  90 CALM      30.06S
ISLIP          CLOUDY    74  68  81 S6        30.06R
NEW YORK CITY  CLOUDY    77  70  79 S8        30.05S
CENTRAL PARK   CLOUDY    75  65  70 CALM      30.08F
$$

NYZ005>009-017-018-044>046-055-056-310500-
CENTRAL


CITY           SKY/WX    TMP DP  RH WIND       PRES   REMARKS
FULTON         CLOUDY    63  61  93 CALM      30.00F
SYRACUSE       PTCLDY    66  58  75 E3        30.00F
ROME           CLEAR     63  61  93 CALM      30.03F
ELMIRA         PTCLDY    62  59  90 CALM      30.05F
BINGHAMTON     PTCLDY    65  56  72 S3        30.07F
MONTICELLO     CLOUDY    61  57  88 CALM      30.10F
$$

NYZ026>034-041>043-087-310500-
NORTH


CITY           SKY/WX    TMP DP  RH WIND       PRES   REMARKS
WATERTOWN      CLOUDY    64  59  83 SE5       29.98F
FORT DRUM      NOT AVBL
MASSENA        CLOUDY    70  58  65 SW8       29.97S
SARANAC LAKE   PTCLDY    62  57  83 SW3       30.03F
PLATTSBURGH    CLOUDY    67  62  84 S3        29.96F
$$

NYZ001>004-010>016-019>021-085-310500-
WEST


CITY           SKY/WX    TMP DP  RH WIND       PRES   REMARKS
NIAGARA FALLS  CLOUDY    73  65  75 S7        30.01F
BUFFALO        CLOUDY    70  60  70 SW7       30.02F
DUNKIRK        MOCLDY    68  60  75 CALM      30.04S
JAMESTOWN      CLOUDY    64  61  88 CALM      30.09F
WELLSVILLE     MOCLDY    65  59  81 CALM      30.12F
ROCHESTER      PTCLDY    69  62  78 CALM      30.01F
PENN YAN       PTCLDY    68  62  81 SW6       30.04F
$$

             KEY
       WCI = WIND CHILL INDEX
       VSB = VISIBILITY
       HX  = HEAT INDEX
$$



USA.gov is the U.S. government's official web portal to all federal, state and local government web resources and services.